[[{"header":{"parameterUnit":"m.s-1","parameterCategory":1,"la1":30.2991,"la2":30.254,"lo1":-89.0895,"lo2":-89.0444,"dy":0.0017,"dx":0.0017,"nx":28,"ny":28,"refTime":"2025-05-01T03:00:00:Z","depth":0,"parameterNumber":2,"parameterNumberName":"U-component_of_WINDS"},"data":[0,0,0,0,0,0,0,0,0,0,0,0,0,0,0,0,0,0,0,0,0,0,0,0,0,0,0,0,0,0,0,0,0,0,0,0,0,0,0,0,0,0,0,0,0,0,0,0,0,0,0,0,0,0,0,0,0,0,-3.7148,-3.7147,0,-3.7028,-3.7027,-3.7025,-3.6947,-3.6946,-3.6946,-3.6945,-3.6817,-3.6814,-3.6811,0,0,0,0,0,0,0,0,0,0,0,0,0,-3.7306,-3.7304,-3.7148,-3.7147,-3.7145,-3.7028,-3.7027,-3.7025,-3.6947,-3.6946,-3.6946,-3.6945,-3.6818,-3.6815,-3.6811,0,0,0,0,0,0,0,0,0,0,0,0,0,-3.7217,-3.7303,-3.7149,-3.7092,-3.7086,-3.7029,-3.7026,-3.7024,-3.6947,-3.6946,-3.6945,-3.6945,-3.6819,-3.6815,-3.681,-3.6798,0,0,-3.6797,-3.6795,0,0,0,0,0,0,0,0,-3.7222,-3.7211,-3.7102,-3.7096,-3.7089,-3.7002,-3.7035,-3.6948,-3.6947,-3.7,-3.6945,-3.6944,-3.6879,-3.6869,-3.6848,-3.6792,-3.6786,-3.6797,-3.6794,-3.6792,-3.6791,0,0,0,0,0,0,0,-3.7228,-3.7216,-3.71,-3.7101,-3.7093,-3.7072,-3.7058,-3.7018,-3.6945,-3.6995,-3.6989,-3.6976,-3.6875,-3.6853,-3.6845,-3.6784,-3.6797,-3.6793,-3.679,-3.6788,-3.6711,-3.6711,0,0,0,0,0,0,-3.7244,-3.7221,-3.7104,-3.7097,-3.7155,-3.707,-3.7054,-3.703,-3.6945,-3.6931,-3.6977,-3.6973,-3.6861,-3.685,-3.684,-3.6818,-3.6792,-3.6788,-3.6785,-3.671,-3.6711,-3.6711,0,0,0,0,0,0,-3.7248,-3.7234,-3.7109,-3.7158,-3.714,-3.7068,-3.7041,-3.7028,-3.7006,-3.6931,-3.6917,-3.6968,-3.686,-3.6846,-3.6809,-3.6812,-3.6786,-3.6782,-3.6709,-3.671,-3.6711,-3.6775,0,0,0,0,0,0,-3.7252,-3.7236,-3.7231,-3.7158,-3.7138,-3.7082,-3.7042,-3.7027,-3.6999,-3.6993,-3.6919,-3.6906,-3.6858,-3.6816,-3.6805,-3.6806,-3.6778,-3.6709,-3.671,-3.6711,-3.6772,-3.6778,-3.6783,0,0,0,0,0,-3.7258,-3.7253,-3.7231,-3.7218,-3.7131,-3.7082,-3.707,-3.7016,-3.7,-3.6994,-3.6946,-3.6908,-3.6815,-3.6813,-3.6799,-3.6799,-3.6708,-3.6709,-3.6711,-3.677,-3.6777,-3.6783,0,0,0,0,0,0,-3.7326,-3.7242,-3.7217,-3.7189,-3.7144,-3.7069,-3.7059,-3.7026,-3.6983,-3.6978,-3.6912,-3.6896,-3.6865,-3.6829,-3.6828,-3.6782,-3.6757,-3.6756,-3.6807,-3.6813,-3.6818,-3.6826,-3.6775,0,0,0,0,0,-3.7338,-3.7308,-3.7235,-3.7217,-3.7196,-3.7132,-3.7109,-3.7072,-3.7021,-3.7001,-3.695,-3.6902,-3.6861,-3.6835,-3.6794,-3.6768,-3.675,-3.6762,-3.6767,-3.6772,-3.677,-3.6753,-3.6757,-3.6716,-3.6716,-3.6716,0,0,-3.7362,-3.7312,-3.7296,-3.7229,-3.719,-3.7158,-3.7116,-3.7084,-3.7059,-3.6995,-3.6957,-3.6919,-3.686,-3.6828,-3.6812,-3.6797,-3.6778,-3.6774,-3.6778,-3.6774,-3.6755,-3.6759,-3.6762,-3.6717,-3.6717,-3.6716,0,0,-3.7388,-3.7348,-3.7328,-3.729,-3.7232,-3.719,-3.7186,-3.7116,-3.7089,-3.705,-3.7002,-3.6971,-3.6903,-3.6863,-3.6834,-3.6847,-3.681,-3.6836,-3.6863,-3.6846,-3.685,-3.6852,-3.6855,-3.6857,-3.6835,-3.6836,-3.6836,0,-3.7423,-3.7375,-3.7322,-3.7292,-3.7264,-3.7208,-3.7186,-3.7151,-3.7082,-3.7063,-3.7048,-3.6962,-3.6918,-3.6876,-3.688,-3.6858,-3.685,-3.6842,-3.6854,-3.6856,-3.6857,-3.6859,-3.6861,-3.6839,-3.6838,-3.6838,-3.6838,0,-3.7421,-3.7388,-3.7379,-3.7315,-3.7286,-3.7261,-3.7202,-3.7179,-3.7145,-3.7104,-3.7065,-3.7012,-3.6959,-3.6946,-3.6912,-3.6899,-3.6892,-3.6867,-3.6839,-3.6865,-3.6866,-3.6866,-3.6843,-3.6842,-3.6841,-3.684,0,0,-3.7483,-3.7392,-3.7389,-3.736,-3.7293,-3.7265,-3.7238,-3.7187,-3.7168,-3.7123,-3.7096,-3.7041,-3.7018,-3.6985,-3.6946,-3.6933,-3.6945,-3.6908,-3.6906,-3.6915,-3.6925,-3.6943,-3.6944,-3.6922,-3.6922,-3.6922,-3.6929,0,-3.7497,-3.7445,-3.7398,-3.7363,-3.7331,-3.7279,-3.7254,-3.721,-3.7172,-3.7138,-3.7095,-3.7057,-3.703,-3.7009,-3.6994,-3.6947,-3.6945,-3.6946,-3.6894,-3.6893,-3.6908,-3.6945,-3.6963,-3.6973,-3.6929,-3.6929,-3.6929,0,-3.7505,-3.7464,-3.7427,-3.7364,-3.7348,-3.7328,-3.7278,-3.7247,-3.7195,-3.7169,-3.7133,-3.7093,-3.706,-3.7039,-3.6992,-3.6993,-3.697,-3.6944,-3.6943,-3.6933,-3.6911,-3.6934,-3.6975,-3.6975,-3.693,-3.693,-3.693,0,-3.7552,-3.7487,-3.7456,-3.7433,-3.7359,-3.7345,-3.7313,-3.7261,-3.7234,-3.7191,-3.7172,-3.7125,-3.7099,-3.7063,-3.7011,-3.7001,-3.6968,-3.6943,-3.6943,-3.6944,-3.6936,-3.6936,-3.697,-3.6926,-3.6926,-3.6926,-3.6926,0,-3.757,-3.7549,-3.7476,-3.7457,-3.7432,-3.7377,-3.7353,-3.7316,-3.727,-3.7242,-3.7194,-3.7168,-3.7103,-3.7069,-3.7028,-3.6994,-3.6983,-3.6959,-3.6948,-3.6962,-3.6964,-3.6943,-3.694,-3.6926,-3.6926,-3.6926,-3.6926,0,-3.7616,-3.7567,-3.753,-3.7464,-3.7447,-3.743,-3.7373,-3.7351,-3.7312,-3.7277,-3.7265,-3.7202,-3.716,-3.7106,-3.7046,-3.7018,-3.6988,-3.6973,-3.7006,-3.6999,-3.7001,-3.7001,-3.702,-3.7019,-3.6978,-3.6979,-3.6979,0,-3.763,-3.7613,-3.7546,-3.7524,-3.7495,-3.7461,-3.7433,-3.738,-3.7353,-3.7294,-3.7279,-3.7234,-3.7194,-3.7129,-3.7077,-3.703,-3.7012,-3.7022,-3.7004,-3.7019,-3.7009,-3.701,-3.7007,-3.7025,-3.7026,-3.7027,-3.7027,0,-3.7659,-3.7636,-3.76,-3.7556,-3.7526,-3.7488,-3.7447,-3.7432,-3.7369,-3.7342,-3.7299,-3.7269,-3.7209,-3.7163,-3.7111,-3.7076,-3.704,-3.7034,-3.7031,-3.7043,-3.7062,-3.705,-3.7015,-3.7033,-3.7032,-3.7032,-3.7031,-3.7031,-3.7688,-3.767,-3.762,-3.7581,-3.7546,-3.751,-3.7487,-3.7446,-3.7409,-3.7357,-3.7328,-3.7286,-3.7234,-3.7161,-3.7128,-3.7093,-3.7079,-3.7076,-3.7074,-3.7074,-3.7077,-3.7071,-3.7083,-3.7083,-3.7083,-3.7083,-3.7083,0,-3.7712,-3.7679,-3.7644,-3.759,-3.756,-3.7533,-3.7487,-3.7462,-3.7426,-3.7383,-3.7346,-3.7296,-3.7253,-3.7199,-3.7151,-3.7133,-3.7116,-3.7122,-3.7122,-3.7114,-3.7093,-3.7099,-3.7137,-3.7137,-3.7137,-3.7137,-3.7137,-3.7137,-3.7721,-3.769,-3.7661,-3.7611,-3.7577,-3.7536,-3.7512,-3.7478,-3.7443,-3.7391,-3.7355,-3.7321,-3.7273,-3.7222,-3.718,-3.7165,-3.7149,-3.716,-3.714,-3.712,-3.7115,-3.7111,-3.7116,-3.7157,-3.7158,-3.7163,-3.7163,-3.7163]},{"header":{"parameterUnit":"m.s-1","parameterCategory":1,"la1":30.2991,"la2":30.254,"lo1":-89.0895,"lo2":-89.0444,"dy":0.0017,"dx":0.0017,"nx":28,"ny":28,"refTime":"2025-05-01T03:00:00:Z","depth":0,"parameterNumber":3,"parameterNumberName":"V-component_of_WINDS"},"data":[0,0,0,0,0,0,0,0,0,0,0,0,0,0,0,0,0,0,0,0,0,0,0,0,0,0,0,0,0,0,0,0,0,0,0,0,0,0,0,0,0,0,0,0,0,0,0,0,0,0,0,0,0,0,0,0,0,0,7.0,6.9999,0,6.9957,6.9957,6.9956,6.979,6.9787,6.9783,6.9779,6.9734,6.9736,6.9739,0,0,0,0,0,0,0,0,0,0,0,0,0,6.9929,6.9931,7.0,6.9999,6.9999,6.9957,6.9957,6.9956,6.9791,6.9787,6.9782,6.9778,6.9733,6.9736,6.9739,0,0,0,0,0,0,0,0,0,0,0,0,0,6.9931,6.9932,7.0,6.9911,6.9903,6.9958,6.9957,6.9956,6.9792,6.9786,6.9781,6.9775,6.9732,6.9736,6.9739,6.9875,0,0,6.975,6.9751,0,0,0,0,0,0,0,0,6.9931,6.9933,6.9925,6.9918,6.9908,6.9873,6.9915,6.9929,6.9794,6.9834,6.9779,6.9773,6.9785,6.9784,6.9788,6.9873,6.9871,6.975,6.9752,6.9754,6.9755,0,0,0,0,0,0,0,6.9931,6.9934,6.9983,6.9925,6.9915,6.9871,6.9865,6.9917,6.9842,6.983,6.9818,6.9815,6.9779,6.9785,6.9786,6.987,6.975,6.9753,6.9755,6.9757,7.0055,7.0061,0,0,0,0,0,0,6.9944,6.9935,6.9984,6.9982,6.9906,6.9877,6.987,6.989,6.9841,6.9828,6.982,6.9808,6.9782,6.9782,6.9784,6.9934,6.9754,6.9757,6.9759,7.005,7.0057,7.0063,0,0,0,0,0,0,6.9943,6.995,6.9986,6.9955,6.9956,6.9884,6.9908,6.9893,6.9898,6.9834,6.9819,6.9841,6.9778,6.9779,6.9852,6.9931,6.9759,6.9762,7.0043,7.0052,7.006,7.0241,0,0,0,0,0,0,6.9942,6.9951,7.0005,6.9958,6.9959,7.0058,6.9913,6.9896,6.9905,6.9889,6.9849,6.9837,6.9773,6.9847,6.9855,6.9933,6.9765,7.0035,7.0047,7.0057,7.0228,7.0255,7.0278,0,0,0,0,0,6.994,7.0059,7.0008,7.0015,7.0025,7.0063,7.0063,6.9989,6.9913,6.9964,6.992,6.9838,6.9921,6.9856,6.9864,6.9944,7.003,7.0044,7.0056,7.0217,7.025,7.0278,0,0,0,0,0,0,7.0119,7.0051,6.9995,7.0102,7.0089,7.0035,7.0098,7.0027,7.0036,7.002,6.9925,6.9917,7.0002,6.998,6.9909,7.0068,6.9961,6.9976,7.008,7.0111,7.0136,7.014,6.9768,0,0,0,0,0,7.017,7.0209,7.0147,7.0248,7.0244,7.0173,7.0187,7.0129,7.0112,7.0106,7.0068,7.0054,7.0074,7.0092,7.0109,7.0223,7.0208,7.028,7.0305,7.0326,7.0341,7.0393,7.0422,7.0106,7.0106,7.0106,0,0,7.0279,7.0246,7.0277,7.0283,7.0266,7.0305,7.017,7.0219,7.0245,7.0113,7.0179,7.015,7.0126,7.0219,7.0258,7.0203,7.0424,7.0343,7.0361,7.0363,7.0409,7.0439,7.0466,7.0115,7.0113,7.0112,0,0,7.0494,7.0476,7.0554,7.0539,7.0514,7.0464,7.0483,7.0437,7.0413,7.0477,7.0376,7.0405,7.0447,7.0432,7.043,7.063,7.0553,7.0638,7.077,7.0822,7.0847,7.0868,7.0936,7.0962,7.0652,7.0653,7.0653,0,7.0632,7.0689,7.0604,7.0657,7.066,7.0539,7.0615,7.0604,7.0586,7.059,7.0528,7.0571,7.0548,7.0632,7.068,7.0684,7.0698,7.0643,7.085,7.0871,7.089,7.0953,7.0979,7.0663,7.0662,7.0661,7.066,0,7.0856,7.0896,7.0961,7.0945,7.0955,7.102,7.0941,7.0961,7.09,7.0855,7.0917,7.0883,7.0888,7.0903,7.0846,7.0977,7.0943,7.0868,7.0758,7.0932,7.0989,7.1013,7.0678,7.0674,7.0671,7.0669,0,0,7.119,7.1119,7.1145,7.1132,7.1092,7.112,7.1175,7.1179,7.1195,7.1185,7.1226,7.126,7.1186,7.1184,7.1123,7.1168,7.1323,7.1085,7.1083,7.1128,7.1459,7.1516,7.1545,7.127,7.1274,7.1278,7.146,0,7.1393,7.1486,7.1407,7.1513,7.1545,7.1426,7.1474,7.1452,7.141,7.1428,7.138,7.1404,7.1308,7.1305,7.1344,7.1296,7.1388,7.1282,7.1305,7.1307,7.1314,7.1576,7.1638,7.1812,7.1482,7.1486,7.1489,0,7.1645,7.1642,7.1752,7.1696,7.1706,7.1751,7.1743,7.1764,7.1734,7.1699,7.1693,7.1615,7.1661,7.1553,7.1613,7.1542,7.1546,7.1523,7.1527,7.1527,7.1409,7.158,7.1866,7.1891,7.1524,7.1521,7.1519,0,7.1873,7.1897,7.1963,7.1956,7.1895,7.1928,7.1903,7.1868,7.1872,7.1864,7.1865,7.1863,7.1862,7.1861,7.1783,7.1713,7.1851,7.1738,7.182,7.1822,7.1856,7.1855,7.2144,7.1861,7.1861,7.186,7.186,0,7.2108,7.2179,7.2064,7.2105,7.2178,7.2083,7.2157,7.212,7.2088,7.2116,7.2013,7.2042,7.1938,7.1954,7.1894,7.1949,7.195,7.192,7.1903,7.1929,7.1933,7.1931,7.1916,7.1867,7.1865,7.1864,7.1863,0,7.2377,7.2304,7.2367,7.2301,7.2285,7.2342,7.2283,7.2316,7.2263,7.23,7.2304,7.2221,7.2234,7.2156,7.2156,7.2114,7.2198,7.2161,7.2209,7.2196,7.2282,7.2274,7.258,7.2613,7.2311,7.2314,7.2316,0,7.2532,7.2583,7.252,7.2531,7.2511,7.2531,7.2533,7.2439,7.2445,7.241,7.2446,7.2449,7.2448,7.2473,7.2412,7.2409,7.237,7.2476,7.2369,7.2391,7.2367,7.2365,7.2367,7.25,7.2503,7.2506,7.2509,0,7.2814,7.2772,7.278,7.2772,7.2777,7.2767,7.275,7.2764,7.2661,7.2673,7.2683,7.2682,7.2677,7.2681,7.2664,7.2635,7.2554,7.2542,7.2561,7.2588,7.2612,7.2596,7.2268,7.2537,7.2534,7.2532,7.253,7.2529,7.3029,7.3065,7.3024,7.3034,7.3009,7.2994,7.3019,7.2967,7.2975,7.2964,7.2906,7.2926,7.2886,7.2855,7.2833,7.2845,7.2793,7.2821,7.2828,7.2836,7.2849,7.261,7.2842,7.2841,7.284,7.2839,7.2838,0,7.3302,7.3268,7.3277,7.3254,7.3259,7.3179,7.3154,7.3163,7.3182,7.3152,7.315,7.3158,7.3159,7.3095,7.3087,7.3108,7.307,7.3109,7.3106,7.3099,7.2898,7.2882,7.3139,7.3139,7.3139,7.3139,7.3139,7.3139,7.3445,7.3501,7.3453,7.3493,7.3457,7.3475,7.3467,7.3449,7.3424,7.3438,7.3437,7.3394,7.3348,7.3334,7.3329,7.331,7.331,7.3362,7.333,7.3143,7.3114,7.3087,7.307,7.3363,7.3364,7.3529,7.3531,7.3532]}]]